TimeEDT,TemperatureF,Dew PointF,Humidity,Sea Level PressureIn,VisibilityMPH,Wind Direction,Wind SpeedMPH,Gust SpeedMPH,PrecipitationIn,Events,Conditions,WindDirDegrees,DateUTC
12:54 AM,32.0,15.1,50,30.20,10.0,NNW,3.5,-,N/A,,Clear,340,2013-03-15 04:54:00
1:54 AM,32.0,15.1,50,30.19,10.0,Calm,Calm,-,N/A,,Clear,0,2013-03-15 05:54:00
2:54 AM,30.2,15.8,55,30.16,10.0,Calm,Calm,-,N/A,,Clear,0,2013-03-15 06:54:00
3:54 AM,32.0,17.1,54,30.14,10.0,North,4.6,-,N/A,,Clear,350,2013-03-15 07:54:00
4:54 AM,33.1,19.0,56,30.15,10.0,NNW,8.1,-,N/A,,Clear,340,2013-03-15 08:54:00
5:54 AM,32.0,21.0,64,30.16,10.0,Calm,Calm,-,N/A,,Clear,0,2013-03-15 09:54:00
6:54 AM,28.0,19.0,69,30.17,10.0,Calm,Calm,-,N/A,,Clear,0,2013-03-15 10:54:00
7:54 AM,28.0,19.0,69,30.18,10.0,Calm,Calm,-,N/A,,Clear,0,2013-03-15 11:54:00
8:54 AM,30.9,19.9,64,30.18,10.0,SSE,3.5,-,N/A,,Clear,150,2013-03-15 12:54:00
9:54 AM,37.9,21.9,53,30.17,10.0,Calm,Calm,-,N/A,,Clear,0,2013-03-15 13:54:00
10:54 AM,44.1,26.1,49,30.14,10.0,South,3.5,-,N/A,,Clear,170,2013-03-15 14:54:00
11:54 AM,50.0,28.9,44,30.10,10.0,SSE,4.6,-,N/A,,Clear,160,2013-03-15 15:54:00
12:54 PM,55.9,30.9,39,30.06,10.0,South,5.8,-,N/A,,Clear,170,2013-03-15 16:54:00
1:54 PM,62.1,33.1,34,30.01,10.0,Variable,4.6,-,N/A,,Clear,0,2013-03-15 17:54:00
2:54 PM,68.0,30.0,24,29.98,10.0,WNW,12.7,21.9,N/A,,Clear,290,2013-03-15 18:54:00
3:54 PM,66.9,28.9,24,29.94,10.0,West,10.4,20.7,N/A,,Clear,260,2013-03-15 19:54:00
4:54 PM,68.0,30.0,24,29.92,10.0,WSW,11.5,20.7,N/A,,Clear,250,2013-03-15 20:54:00
5:54 PM,68.0,27.0,21,29.91,10.0,West,13.8,20.7,N/A,,Clear,270,2013-03-15 21:54:00
6:54 PM,66.9,30.9,26,29.92,10.0,West,9.2,18.4,N/A,,Mostly Cloudy,270,2013-03-15 22:54:00
7:03 PM,66.2,32.0,28,29.94,10.0,West,11.5,21.9,N/A,,Mostly Cloudy,270,2013-03-15 23:03:00
7:54 PM,64.0,35.1,34,29.94,10.0,West,11.5,19.6,N/A,,Clear,260,2013-03-15 23:54:00
8:54 PM,63.0,36.0,37,29.94,10.0,West,4.6,-,N/A,,Clear,280,2013-03-16 00:54:00
9:54 PM,59.0,37.0,44,29.94,10.0,Calm,Calm,-,N/A,,Partly Cloudy,0,2013-03-16 01:54:00
10:54 PM,57.0,37.0,47,29.93,10.0,Calm,Calm,-,N/A,,Scattered Clouds,0,2013-03-16 02:54:00
11:54 PM,53.1,37.9,57,29.92,10.0,Calm,Calm,-,N/A,,Partly Cloudy,0,2013-03-16 03:54:00